FW0960 Weather Reports


time (UTC)temp
C
wind
direction
speed
KPH
gust
KPH
rain 1hr
cm
rain 24hr
cm
rain mn
cm
humidity
%
barometer
mb
20260906022707 21 192 0.0 0.0 0.00 0.00 0.00 91 1012.5
20260906022202 21 192 0.0 0.0 0.00 0.00 0.00 91 1012.5
20260906021709 21 192 0.0 0.0 0.00 0.00 0.00 90 1012.5
20260906021203 21 192 0.0 0.0 0.00 0.00 0.00 90 1012.4
20260906020702 21 192 0.0 0.0 0.00 0.00 0.00 90 1012.5
20260906020202 21 192 0.0 0.0 0.00 0.00 0.00 90 1012.6
20260906015201 21 192 0.0 0.0 0.00 0.00 0.00 90 1012.3
20260906014702 21 192 0.0 0.0 0.00 0.00 0.00 90 1012.2
20260906014202 21 192 0.0 0.0 0.00 0.00 0.00 90 1012.2
20260906013701 21 192 0.0 0.0 0.00 0.00 0.00 90 1012.1
20260906013159 21 192 0.0 0.0 0.00 0.00 0.00 90 1012.0
20260906012659 21 192 0.0 0.0 0.00 0.00 0.00 90 1012.0
20260906012158 21 192 0.0 0.0 0.00 0.00 0.00 90 1011.9
20260906011658 21 192 0.0 0.0 0.00 0.00 0.00 89 1011.9
20260906010651 22 192 0.0 0.0 0.00 0.00 0.00 89 1011.9
20260906010159 22 192 0.0 0.0 0.00 0.00 0.00 88 1011.9
20260906004645 22 192 0.0 0.0 0.00 0.00 0.00 87 1011.9
20260906003644 22 192 0.0 0.0 0.00 0.00 0.00 86 1011.8
20260906003143 22 192 0.0 0.0 0.00 0.00 0.00 86 1011.7
20260906002644 22 192 0.0 0.0 0.00 0.00 0.00 86 1011.7
20260906002143 23 192 0.0 0.0 0.00 0.00 0.00 85 1011.6
20260906001135 23 192 0.0 0.0 0.00 0.00 0.00 83 1011.2
20260906000641 23 192 0.0 0.0 0.00 0.00 0.00 83 1011.1
20260906000137 23 192 0.0 0.0 0.00 0.00 0.00 82 1011.1
20260905235700 23 192 0.0 0.0 0.00 0.00 0.00 83 1011.0
20260905235139 23 192 0.0 0.0 0.00 0.00 0.00 82 1011.1
20260905234740 23 192 0.0 0.0 0.00 0.00 0.00 81 1011.0
20260905233638 24 192 0.0 0.0 0.00 0.00 0.00 81 1011.0
20260905233139 24 192 0.0 0.0 0.00 0.00 0.00 79 1011.1
20260905232632 24 192 0.0 0.0 0.00 0.00 0.00 78 1011.0
20260905231633 24 192 0.0 0.0 0.00 0.00 0.00 78 1011.1
20260905231133 25 192 0.0 0.0 0.00 0.00 0.00 75 1011.1
20260905230635 25 192 0.0 0.0 0.00 0.00 0.00 74 1011.1
20260905230133 25 192 0.0 0.0 0.00 0.00 0.00 74 1011.2
20260905225130 25 192 0.0 0.0 0.00 0.00 0.00 74 1011.2
20260905224631 25 192 0.0 0.0 0.00 0.00 0.00 72 1011.1
20260905224140 25 192 0.0 0.0 0.00 0.00 0.00 73 1010.9
20260905222634 25 192 0.0 0.0 0.00 0.00 0.00 71 1010.9
20260905222137 25 192 0.0 0.0 0.00 0.00 0.00 71 1011.1
20260905221634 25 192 0.0 0.0 0.00 0.00 0.00 71 1011.1
20260905221132 25 192 0.0 0.0 0.00 0.00 0.00 70 1011.0
20260905220637 25 192 0.0 0.0 0.00 0.00 0.00 70 1011.1
20260905220138 25 192 0.0 0.0 0.00 0.00 0.00 71 1011.0
20260905215627 25 192 0.0 0.0 0.00 0.00 0.00 69 1011.0
20260905215131 25 193 0.0 0.0 0.00 0.00 0.00 70 1011.0
20260905214713 25 193 0.0 0.0 0.00 0.00 0.00 70 1011.0
20260905213623 25 189 0.0 0.0 0.00 0.00 0.00 71 1010.8
20260905212617 25 192 0.0 0.0 0.00 0.00 0.00 72 1010.8
20260905212117 25 192 0.0 0.0 0.00 0.00 0.00 71 1010.7
20260905211615 25 191 0.0 0.0 0.00 0.00 0.00 70 1010.5
20260905211111 25 190 0.0 0.0 0.00 0.00 0.00 74 1010.4
20260905210108 25 190 0.0 0.0 0.00 0.00 0.00 72 1010.2
20260905205105 25 195 0.0 0.0 0.00 0.00 0.00 74 1010.1
20260905204607 25 198 0.0 0.0 0.00 0.00 0.00 73 1010.1
20260905204106 25 196 0.0 0.0 0.00 0.00 0.00 74 1010.1
20260905203601 25 196 0.0 0.0 0.00 0.00 0.00 72 1010.1
20260905202559 25 196 0.0 0.0 0.00 0.00 0.00 74 1010.0
20260905202129 25 196 0.0 0.0 0.00 0.00 0.00 73 1010.3
20260905201555 25 196 0.0 0.0 0.00 0.00 0.00 72 1010.3
20260905201052 25 196 0.0 0.0 0.00 0.00 0.00 72 1010.3
20260905200558 26 199 0.0 0.0 0.00 0.00 0.00 71 1010.4
20260905200046 26 199 0.0 0.0 0.00 0.00 0.00 74 1010.4
20260905195547 26 201 0.0 0.0 0.00 0.00 0.00 73 1010.2
20260905195048 26 190 0.0 0.0 0.00 0.00 0.00 72 1010.4
20260905194043 26 198 0.0 0.0 0.00 0.00 0.00 72 1010.6
20260905193538 25 198 0.0 0.0 0.00 0.00 0.00 72 1010.9
20260905192537 25 198 0.0 0.0 0.00 0.00 0.00 74 1011.0
20260905191540 25 198 0.0 0.0 0.00 0.00 0.00 73 1011.1
20260905191036 25 198 0.0 0.0 0.00 0.00 0.00 73 1011.1
20260905190534 25 199 0.0 0.0 0.00 0.00 0.00 73 1011.0
20260905190036 26 199 0.0 0.0 0.00 0.00 0.00 73 1011.0
20260905185532 26 200 0.0 0.0 0.00 0.00 0.00 71 1011.0
20260905185032 26 200 0.0 0.0 0.00 0.00 0.00 72 1011.0
20260905184533 26 200 0.0 0.0 0.00 0.00 0.00 69 1011.1
20260905184031 26 200 0.0 0.0 0.00 0.00 0.00 71 1011.4
20260905183534 26 201 0.0 0.0 0.00 0.00 0.00 67 1011.4
20260905183032 25 202 0.0 0.0 0.00 0.00 0.00 68 1011.6
20260905182102 25 202 0.0 0.0 0.00 0.00 0.00 75 1011.6
20260905181522 25 203 0.0 0.0 0.00 0.00 0.00 72 1011.6
20260905180022 25 192 0.0 0.0 0.00 0.00 0.00 75 1011.6
20260905175516 25 192 0.0 0.0 0.00 0.00 0.00 77 1011.5
20260905174516 25 194 0.0 0.0 0.00 0.00 0.00 75 1011.8
20260905174015 25 196 0.0 0.0 0.00 0.00 0.00 75 1011.5
20260905173514 25 196 0.0 0.0 0.00 0.00 0.00 73 1011.6
20260905171506 25 195 0.0 0.0 0.00 0.00 0.00 75 1011.6
20260905170013 25 193 0.0 0.0 0.00 0.00 0.00 76 1011.7
20260905165505 25 192 0.0 0.0 0.00 0.00 0.00 76 1011.8
20260905164503 25 192 0.0 0.0 0.00 0.00 0.00 75 1011.8
20260905164009 25 192 0.0 0.0 0.00 0.00 0.00 74 1011.8
20260905162959 25 193 0.0 0.0 0.00 0.00 0.00 76 1012.1
20260905162453 25 197 0.0 0.0 0.00 0.00 0.00 73 1012.0
20260905161940 25 198 0.0 0.0 0.00 0.00 0.00 75 1011.9
20260905161434 25 196 0.0 0.0 0.00 0.00 0.00 74 1012.1
20260905160931 25 197 0.0 0.0 0.00 0.00 0.00 75 1012.2
20260905160432 25 202 0.0 0.0 0.00 0.00 0.00 76 1012.1
20260905155939 25 198 0.0 0.0 0.00 0.00 0.00 75 1012.2
20260905154940 25 192 0.0 0.0 0.00 0.00 0.00 76 1012.3
20260905153934 25 195 0.0 0.0 0.00 0.00 0.00 76 1012.3
20260905153431 24 192 0.0 0.0 0.00 0.00 0.00 77 1012.3
20260905152932 24 189 0.0 0.0 0.00 0.00 0.00 76 1012.5
20260905150931 24 195 0.0 0.0 0.00 0.00 0.00 76 1012.2
20260905150432 24 194 0.0 0.0 0.00 0.00 0.00 75 1012.4
20260905145439 24 196 0.0 0.0 0.00 0.00 0.00 77 1012.3
20260905144936 24 196 0.0 0.0 0.00 0.00 0.00 77 1012.3
20260905144431 24 194 0.0 0.0 0.00 0.00 0.00 77 1012.3
20260905143932 24 192 0.0 0.0 0.00 0.00 0.00 78 1012.3
20260905142930 24 192 0.0 0.0 0.00 0.00 0.00 79 1012.2
20260905142431 25 191 0.0 0.0 0.00 0.00 0.00 78 1012.1
20260905141435 25 193 0.0 0.0 0.00 0.00 0.00 76 1012.1
20260905140930 25 198 0.0 0.0 0.00 0.00 0.00 76 1011.8
20260905140432 25 198 0.0 0.0 0.00 0.00 0.00 75 1011.8
20260905135430 25 184 0.0 0.0 0.00 0.00 0.00 76 1011.7
20260905134933 25 184 0.0 0.0 0.00 0.00 0.00 76 1011.6
20260905134430 25 184 0.0 0.0 0.00 0.00 0.00 78 1011.6
20260905133937 25 184 0.0 0.0 0.00 0.00 0.00 78 1011.6
20260905133434 25 184 0.0 0.0 0.00 0.00 0.00 77 1011.5
20260905132935 24 184 0.0 0.0 0.00 0.00 0.00 79 1011.4
20260905132432 24 184 0.0 0.0 0.00 0.00 0.00 77 1011.4
20260905131929 24 184 0.0 0.0 0.00 0.00 0.00 77 1011.4
20260905131431 24 184 0.0 0.0 0.00 0.00 0.00 78 1011.3
20260905130930 24 184 0.0 0.0 0.00 0.00 0.00 77 1011.4
20260905130431 24 184 0.0 0.0 0.00 0.00 0.00 74 1011.2
20260905125430 24 184 0.0 0.0 0.00 0.00 0.00 79 1011.4
20260905124932 24 184 0.0 0.0 0.00 0.00 0.00 78 1011.4
20260905124432 24 184 0.0 0.0 0.00 0.00 0.00 78 1011.4
20260905123431 24 184 0.0 0.0 0.00 0.00 0.00 85 1011.5
20260905122933 24 184 0.0 0.0 0.00 0.00 0.00 85 1011.6
20260905122431 23 184 0.0 0.0 0.00 0.00 0.00 85 1011.6
20260905121454 23 183 0.0 0.0 0.00 0.00 0.00 87 1011.5
20260905120932 23 148 0.0 0.0 0.00 0.00 0.00 89 1011.3
20260905120434 23 148 0.0 0.0 0.00 0.00 0.00 91 1011.2
20260905115932 23 148 0.0 0.0 0.00 0.00 0.00 93 1011.1
20260905115431 23 148 0.0 0.0 0.00 0.00 0.00 94 1011.1
20260905114935 23 148 0.0 0.0 0.00 0.00 0.00 96 1010.9
20260905114436 23 148 0.0 0.0 0.00 0.00 0.00 96 1011.0
20260905113441 23 148 0.0 0.0 0.00 0.00 0.00 97 1010.9
20260905112434 22 148 0.0 0.0 0.00 0.00 0.00 98 1010.9
20260905111433 22 148 0.0 0.0 0.00 0.00 0.00 98 1010.8
20260905110430 22 148 0.0 0.0 0.00 0.00 0.00 98 1010.8
20260905105929 22 148 0.0 0.0 0.00 0.00 0.00 98 1010.7
20260905105432 22 148 0.0 0.0 0.00 0.00 0.00 98 1010.5
20260905104937 22 148 0.0 0.0 0.00 0.00 0.00 98 1010.4
20260905104023 22 148 0.0 0.0 0.00 0.00 0.00 98 1010.3
20260905102932 22 148 0.0 0.0 0.00 0.00 0.00 98 1010.3
20260905102430 22 148 0.0 0.0 0.00 0.03 0.00 98 1010.1
20260905101929 22 148 0.0 0.0 0.00 0.03 0.00 97 1010.0
20260905101432 22 148 0.0 0.0 0.00 0.03 0.00 97 1010.0
20260905100934 22 148 0.0 0.0 0.00 0.03 0.00 97 1009.9
20260905100430 22 148 0.0 0.0 0.00 0.03 0.00 97 1009.9
20260905095430 22 148 0.0 0.0 0.00 0.03 0.00 97 1009.9
20260905094926 22 148 0.0 0.0 0.00 0.03 0.00 97 1009.9
20260905094442 22 148 0.0 0.0 0.00 0.03 0.00 97 1009.9
20260905093920 23 148 0.0 0.0 0.00 0.03 0.00 96 1010.0
20260905093440 23 148 0.0 0.0 0.00 0.03 0.00 96 1010.1
20260905092413 23 148 0.0 0.0 0.00 0.03 0.00 96 1010.0
20260905091910 23 148 0.0 0.0 0.00 0.03 0.00 96 1009.9
20260905091417 23 148 0.0 0.0 0.00 0.03 0.00 95 1010.0
20260905090910 23 148 0.0 0.0 0.00 0.03 0.00 95 1010.0
20260905090410 23 148 0.0 0.0 0.00 0.03 0.00 95 1010.1
20260905085909 23 148 0.0 0.0 0.00 0.03 0.00 95 1010.1
20260905085410 23 148 0.0 0.0 0.00 0.03 0.00 95 1009.9
20260905084904 23 148 0.0 0.0 0.00 0.03 0.00 95 1010.1
20260905084408 23 148 0.0 0.0 0.00 0.03 0.00 95 1010.2
20260905083902 23 148 0.0 0.0 0.00 0.03 0.00 95 1010.0
20260905083402 23 148 0.0 0.0 0.00 0.03 0.00 95 1010.0
20260905082401 23 148 0.0 0.0 0.00 0.05 0.00 94 1010.0
20260905080839 23 148 0.0 0.0 0.00 0.05 0.00 94 1010.1
20260905080333 23 148 0.0 0.0 0.00 0.05 0.00 94 1010.2
20260905075837 23 148 0.0 0.0 0.00 0.05 0.00 94 1010.2
20260905075335 23 148 0.0 0.0 0.00 0.05 0.00 94 1010.2
20260905074835 23 148 0.0 0.0 0.00 0.08 0.00 94 1010.1
20260905073331 23 148 0.0 0.0 0.00 0.10 0.00 93 1009.9
20260905072840 24 148 0.0 0.0 0.00 0.10 0.00 93 1010.0
20260905072342 24 148 0.0 0.0 0.00 0.13 0.00 93 1010.1
20260905071333 24 148 0.0 0.0 0.00 0.18 0.00 93 1010.2
20260905070831 24 148 0.0 0.0 0.00 0.20 0.00 93 1010.5
20260905070333 25 148 0.0 0.0 0.00 0.25 0.00 93 1010.5
20260905065337 25 148 0.0 0.0 0.00 0.33 0.00 92 1010.6
20260905064839 25 148 0.0 0.0 0.00 0.36 0.00 92 1010.6
20260905063835 25 148 0.0 0.0 0.00 0.38 0.00 92 1010.5
20260905063331 25 148 0.0 0.0 0.00 0.41 0.00 92 1010.6
20260905062831 25 148 0.0 0.0 0.00 0.41 0.00 91 1010.6
20260905061830 25 148 0.0 0.0 0.00 0.48 0.00 90 1010.7
20260905061329 25 148 0.0 0.0 0.00 0.51 0.00 90 1010.7
20260905060825 25 148 0.0 0.0 0.00 0.56 0.00 90 1010.6
20260905055820 25 148 0.0 0.0 0.00 0.81 0.00 90 1010.7
20260905055323 25 148 0.0 0.0 0.00 1.40 0.00 90 1010.5
20260905054821 25 148 0.0 0.0 0.00 1.60 0.00 91 1010.5
20260905054318 25 148 0.0 0.0 0.00 1.60 0.00 91 1010.4
20260905053818 25 148 0.0 0.0 0.00 1.60 0.00 90 1010.5
20260905053313 25 148 0.0 0.0 0.00 1.60 0.00 91 1010.7
20260905052815 25 148 0.0 0.0 0.00 1.60 0.00 91 1010.7
20260905052329 25 148 0.0 0.0 0.00 1.60 0.00 91 1010.8
20260905051310 25 144 0.0 0.0 0.00 1.60 0.00 91 1010.9
20260905050305 25 145 0.0 0.0 0.00 1.60 0.00 91 1011.0
20260905045806 25 144 0.0 0.0 0.00 1.60 0.00 91 1011.1
20260905044800 25 144 0.0 0.0 0.00 1.60 0.00 90 1011.3
20260905044255 25 144 0.0 0.0 0.00 1.60 0.00 90 1011.3
20260905043751 25 144 0.0 0.0 0.00 1.60 0.00 90 1011.4
20260905043242 25 144 0.0 0.0 0.00 1.60 0.00 89 1011.5
20260905042233 25 144 0.0 0.0 0.00 1.60 0.00 89 1011.4
20260905041743 25 145 0.0 0.0 0.00 1.60 0.00 89 1011.5
20260905041233 25 144 0.0 0.0 0.00 1.60 0.00 89 1011.5
20260905040735 25 144 0.0 0.0 0.00 1.60 0.00 89 1011.4
20260905040238 25 144 0.0 0.0 0.00 1.60 0.00 89 1011.4
20260905035738 25 145 0.0 0.0 0.00 1.60 1.60 88 1011.4
20260905035233 25 144 0.0 0.0 0.00 1.60 1.60 88 1011.3
20260905034731 25 144 0.0 1.6 0.00 1.60 1.60 87 1011.4
20260905034232 25 145 0.0 1.6 0.00 1.60 1.60 87 1011.3
20260905033730 25 145 0.0 0.0 0.00 1.60 1.60 87 1011.4
20260905033231 25 145 0.0 0.0 0.00 1.60 1.60 88 1011.5
20260905032732 25 145 0.0 0.0 0.00 1.60 1.60 88 1011.6
20260905031731 25 144 0.0 0.0 0.00 1.60 1.60 89 1011.7
20260905031231 25 145 0.0 0.0 0.00 1.60 1.60 89 1011.7
20260905030732 25 144 0.0 0.0 0.00 1.60 1.60 90 1011.8
20260905030232 25 145 0.0 0.0 0.00 1.60 1.60 90 1012.0
20260905025730 25 144 0.0 0.0 0.00 1.60 1.60 90 1011.9
20260905025232 25 145 0.0 0.0 0.00 1.60 1.60 89 1011.9
20260905024736 25 144 0.0 0.0 0.00 1.60 1.60 89 1012.1
20260905023835 25 145 0.0 0.0 0.00 1.60 1.60 90 1011.9